Regional Weather Roundup
Issued by NWS Nashville, TN

Home | Current Version | Previous Version | Text Only | Print | Product List | Glossary On
Versions: 1 2 3 4 5 6 7 8 9 10 11 12 13 14 15 16 17 18 19 20 21 22 23 24 25 26 27 28 29 30 31 32 33 34 35 36 37 38 39 40 41 42 43 44 45 46 47 48 49 50
000
ASUS44 KOHX 271910
RWROHX
MIDDLE TENNESSEE HOURLY WEATHER ROUNDUP
NATIONAL WEATHER SERVICE NASHVILLE TN
200 PM CDT THU AUG 27 2015

NOTE: "FAIR" INDICATES FEW OR NO CLOUDS BELOW 12,000 FEET WITH
NO SIGNIFICANT WEATHER AND/OR OBSTRUCTIONS TO VISIBILITY.

* THESE REPORTS ARE NOT UNDER NWS QUALITY CONTROL AND MAY NOT
  REPORT WEATHER SUCH AS PRECIPITATION AND FOG.


TNZ005>011-023>034-057-059-062>066-078-080-272000
...NORTHERN MIDDLE TENNESSEE...

CITY           SKY/WX    TMP DP  RH WIND       PRES   REMARKS
CLARKSVILLE    SUNNY     81  53  37 VRB5G18   30.10S
CROSSVILLE     PTSUNNY   76  58  53 VRB6      30.13F
DICKSON        SUNNY     79  52  38 NE8       30.10F
LIVINGSTON     SUNNY     78  57  48 NE8       30.13
NASHVILLE      MOSUNNY   81  52  36 E10       30.08F
SMYRNA         SUNNY     86  55  34 NE9       30.08F
$$
TNZ056-058-060-061-075>077-079-093>097-272000
...SOUTHERN MIDDLE TENNESSEE...

CITY           SKY/WX    TMP DP  RH WIND       PRES   REMARKS
COLUMBIA       SUNNY     81  57  44 VRB6      30.07S
LEWISBURG      SUNNY     79  54  41 E8        30.07F
MCMINNVILLE    MOSUNNY   79  64  61 VRB5      30.09F
SHELBYVILLE    SUNNY     81  61  50 VRB6      30.08F
TULLAHOMA      MOSUNNY   79  61  53 VRB3      30.09F
WINCHESTER     MOSUNNY   79  63  57 VRB3      30.07F
$$


...KEY TO REMARKS...
VSB - VISIBILITY IN MILES
WCI - WIND CHILL INDEX
HX  - HEAT INDEX



USA.gov is the U.S. government's official web portal to all federal, state and local government web resources and services.